When you browse on this site, cookies collect data to enhance your experience and personalize the content and advertising you see.
Visit our Privacy Policy to learn more. By continuing to use the site, you agree to this use of cookies and data.

Hourly Weather Kazinka

Today, 7 July, Tuesday

Time Temperature Precipitation Wind Pressure Humidity
00:00 +21°C° 0 mm 1 mps 738 mmHg 87%
01:00 +20°C° 0 mm 2 mps 738 mmHg 89%
02:00 +20°C° 0 mm 2 mps 738 mmHg 91%
03:00 +20°C° 0 mm 2 mps 738 mmHg 94%
04:00 +20°C° 0.1 mm 2 mps 738 mmHg 94%
05:00 +21°C° 0.1 mm 2 mps 737 mmHg 94%
06:00 +21°C° 0.1 mm 2 mps 737 mmHg 94%
07:00 +24°C° 0 mm 2 mps 737 mmHg 90%
08:00 +25°C° 0 mm 3 mps 737 mmHg 87%
09:00 +27°C° 0 mm 3 mps 737 mmHg 82%
10:00 +28°C° 0.4 mm 3 mps 737 mmHg 78%
11:00 +29°C° 0.4 mm 3 mps 737 mmHg 74%
12:00 +31°C° 0.4 mm 3 mps 737 mmHg 69%
13:00 +32°C° 0.4 mm 4 mps 737 mmHg 70%
14:00 +32°C° 0.4 mm 4 mps 736 mmHg 71%
15:00 +32°C° 0.4 mm 4 mps 736 mmHg 71%
16:00 +30°C° 0.3 mm 4 mps 736 mmHg 73%
17:00 +30°C° 0.3 mm 4 mps 735 mmHg 74%
18:00 +30°C° 0.3 mm 3 mps 735 mmHg 75%
19:00 +29°C° 0 mm 4 mps 735 mmHg 76%
20:00 +27°C° 0 mm 4 mps 735 mmHg 76%
21:00 +26°C° 0 mm 4 mps 735 mmHg 76%
22:00 +25°C° 0 mm 4 mps 734 mmHg 73%
23:00 +23°C° 0 mm 4 mps 734 mmHg 70%

Tomorrow, 8 July, Wednesday

Time Temperature Precipitation Wind Pressure Humidity
00:00 +23°C° 0 mm 4 mps 734 mmHg 67%
01:00 +22°C° 0 mm 4 mps 734 mmHg 66%
02:00 +22°C° 0 mm 4 mps 734 mmHg 66%
03:00 +22°C° 0 mm 3 mps 734 mmHg 66%
04:00 +22°C° 0 mm 3 mps 733 mmHg 70%
05:00 +21°C° 0 mm 3 mps 733 mmHg 74%
06:00 +21°C° 0 mm 3 mps 733 mmHg 77%
07:00 +23°C° 0.1 mm 2 mps 733 mmHg 77%
08:00 +24°C° 0.1 mm 2 mps 733 mmHg 76%
09:00 +25°C° 0.1 mm 2 mps 733 mmHg 76%
10:00 +26°C° 0 mm 2 mps 733 mmHg 73%
11:00 +27°C° 0 mm 3 mps 734 mmHg 70%
12:00 +28°C° 0 mm 3 mps 734 mmHg 66%
13:00 +28°C° 0.2 mm 3 mps 734 mmHg 70%
14:00 +27°C° 0.2 mm 3 mps 734 mmHg 73%
15:00 +27°C° 0.2 mm 3 mps 735 mmHg 76%
16:00 +26°C° 1.8 mm 3 mps 735 mmHg 81%
17:00 +23°C° 1.8 mm 4 mps 735 mmHg 86%
18:00 +22°C° 1.8 mm 4 mps 735 mmHg 90%
19:00 +21°C° 1.1 mm 4 mps 735 mmHg 92%
20:00 +20°C° 1.1 mm 4 mps 736 mmHg 94%
21:00 +19°C° 1.1 mm 4 mps 736 mmHg 96%
22:00 +19°C° 0.5 mm 5 mps 736 mmHg 96%
23:00 +17°C° 0.5 mm 5 mps 736 mmHg 95%

Day after tomorrow, 9 July, Thursday

Time Temperature Precipitation Wind Pressure Humidity
00:00 +17°C° 0.5 mm 5 mps 737 mmHg 95%
01:00 +16°C° 0.5 mm 5 mps 737 mmHg 95%
02:00 +16°C° 0.5 mm 5 mps 737 mmHg 95%
03:00 +15°C° 0.5 mm 5 mps 737 mmHg 95%
04:00 +15°C° 0.2 mm 5 mps 737 mmHg 94%
05:00 +14°C° 0.2 mm 5 mps 737 mmHg 94%
06:00 +14°C° 0.2 mm 5 mps 737 mmHg 94%
07:00 +14°C° 0.1 mm 5 mps 738 mmHg 92%
08:00 +15°C° 0.1 mm 5 mps 738 mmHg 90%
09:00 +15°C° 0.1 mm 5 mps 738 mmHg 89%
10:00 +16°C° 0 mm 5 mps 739 mmHg 83%
11:00 +19°C° 0 mm 5 mps 739 mmHg 78%
12:00 +20°C° 0 mm 6 mps 740 mmHg 72%
13:00 +21°C° 0 mm 5 mps 740 mmHg 71%
14:00 +21°C° 0 mm 5 mps 740 mmHg 69%
15:00 +22°C° 0 mm 4 mps 740 mmHg 68%
16:00 +22°C° 0 mm 4 mps 741 mmHg 70%
17:00 +21°C° 0 mm 4 mps 741 mmHg 71%
18:00 +21°C° 0 mm 3 mps 741 mmHg 73%
19:00 +20°C° 0 mm 3 mps 741 mmHg 77%
20:00 +18°C° 0 mm 3 mps 742 mmHg 81%
21:00 +16°C° 0 mm 3 mps 742 mmHg 85%
22:00 +16°C° 0 mm 3 mps 742 mmHg 86%
23:00 +14°C° 0 mm 3 mps 742 mmHg 87%

10 July, Friday

Time Temperature Precipitation Wind Pressure Humidity
00:00 +13°C° 0 mm 3 mps 743 mmHg 88%
01:00 +13°C° 0 mm 3 mps 743 mmHg 90%
02:00 +12°C° 0 mm 3 mps 743 mmHg 91%
03:00 +12°C° 0 mm 3 mps 743 mmHg 92%
04:00 +12°C° 0 mm 3 mps 744 mmHg 92%
05:00 +13°C° 0 mm 3 mps 744 mmHg 91%
06:00 +13°C° 0 mm 3 mps 744 mmHg 90%
07:00 +14°C° 0 mm 3 mps 745 mmHg 85%
08:00 +17°C° 0 mm 3 mps 745 mmHg 81%
09:00 +19°C° 0 mm 3 mps 745 mmHg 76%
10:00 +19°C° 0 mm 3 mps 745 mmHg 72%
11:00 +20°C° 0 mm 3 mps 746 mmHg 67%
12:00 +21°C° 0 mm 3 mps 746 mmHg 63%
13:00 +22°C° 0 mm 3 mps 746 mmHg 62%
14:00 +22°C° 0 mm 3 mps 746 mmHg 61%
15:00 +22°C° 0 mm 3 mps 746 mmHg 59%
16:00 +22°C° 0 mm 3 mps 746 mmHg 62%
17:00 +23°C° 0 mm 2 mps 746 mmHg 65%
18:00 +21°C° 0 mm 2 mps 746 mmHg 68%
19:00 +20°C° 0 mm 2 mps 746 mmHg 70%
20:00 +19°C° 0 mm 1 mps 746 mmHg 72%
21:00 +16°C° 0 mm 1 mps 747 mmHg 75%
22:00 +16°C° 0 mm 1 mps 747 mmHg 75%
23:00 +15°C° 0 mm 1 mps 747 mmHg 76%

11 July, Saturday

Time Temperature Precipitation Wind Pressure Humidity
00:00 +15°C° 0 mm 1 mps 747 mmHg 77%
01:00 +15°C° 0 mm 1 mps 747 mmHg 78%
02:00 +14°C° 0 mm 1 mps 747 mmHg 79%
03:00 +14°C° 0 mm 1 mps 747 mmHg 80%
04:00 +14°C° 0 mm 1 mps 748 mmHg 81%
05:00 +15°C° 0 mm 1 mps 748 mmHg 81%
06:00 +15°C° 0 mm 0 mps 748 mmHg 81%
07:00 +18°C° 0 mm 1 mps 748 mmHg 77%
08:00 +20°C° 0 mm 1 mps 748 mmHg 72%
09:00 +20°C° 0 mm 2 mps 748 mmHg 68%
10:00 +21°C° 0 mm 2 mps 748 mmHg 65%
11:00 +23°C° 0 mm 2 mps 748 mmHg 61%
12:00 +24°C° 0 mm 2 mps 748 mmHg 58%
13:00 +24°C° 0 mm 2 mps 747 mmHg 57%
14:00 +24°C° 0 mm 2 mps 747 mmHg 56%
15:00 +25°C° 0 mm 2 mps 747 mmHg 54%
16:00 +25°C° 0 mm 2 mps 747 mmHg 58%
17:00 +25°C° 0 mm 2 mps 746 mmHg 62%
18:00 +24°C° 0 mm 2 mps 746 mmHg 65%
19:00 +23°C° 0 mm 1 mps 746 mmHg 68%
20:00 +21°C° 0 mm 1 mps 746 mmHg 70%
21:00 +19°C° 0 mm 1 mps 746 mmHg 73%
22:00 +18°C° 0 mm 2 mps 746 mmHg 73%
23:00 +17°C° 0 mm 2 mps 746 mmHg 73%

12 July, Sunday

Time Temperature Precipitation Wind Pressure Humidity
00:00 +17°C° 0 mm 2 mps 746 mmHg 74%
01:00 +17°C° 0 mm 2 mps 746 mmHg 74%
02:00 +16°C° 0 mm 2 mps 745 mmHg 75%
03:00 +16°C° 0 mm 2 mps 745 mmHg 76%
04:00 +16°C° 0 mm 2 mps 745 mmHg 78%
05:00 +16°C° 0 mm 2 mps 745 mmHg 79%
06:00 +17°C° 0 mm 2 mps 745 mmHg 81%
07:00 +18°C° 0 mm 2 mps 745 mmHg 77%
08:00 +21°C° 0 mm 1 mps 745 mmHg 73%
09:00 +23°C° 0 mm 1 mps 745 mmHg 69%
10:00 +24°C° 0 mm 1 mps 745 mmHg 66%
11:00 +25°C° 0 mm 1 mps 745 mmHg 63%
12:00 +26°C° 0 mm 1 mps 745 mmHg 60%
13:00 +26°C° 0 mm 1 mps 744 mmHg 59%
14:00 +26°C° 0 mm 1 mps 744 mmHg 57%
15:00 +27°C° 0 mm 1 mps 744 mmHg 56%
16:00 +27°C° 0 mm 1 mps 743 mmHg 57%
17:00 +27°C° 0 mm 1 mps 743 mmHg 59%
18:00 +24°C° 0 mm 0 mps 743 mmHg 61%
19:00 +23°C° 0 mm 0 mps 743 mmHg 64%
20:00 +21°C° 0 mm 0 mps 742 mmHg 68%
21:00 +19°C° 0 mm 0 mps 742 mmHg 72%
22:00 +21°C° 0 mm 1 mps 742 mmHg 74%
23:00 +20°C° 0 mm 1 mps 742 mmHg 76%
Show more